IRIDIUM 41 [-] (25040 NORAD) Tracking and Keplerian Element Data

This shows tracking and keplerian element data for the satellite.

Feedback or suggestion? Click here.




ElementValue
Catalog25040
NameIRIDIUM 41 [-]
Epoch Orbit8494
Epoch Day208.89205685
Epoch Year2018
RAAN209.7457
Inclination86.594
Eccentricity0.0066958
Argument of Perigee229.05
Mean Anonmoly130.5497
Mean Motion16.36285672
Decay Rate0.07915872
L11 25040U 97069B 18208.89205685 .07915872 -17382-5 18859-3 0 9994
L22 25040 86.5940 209.7457 0066958 229.0500 130.5497 16.36285672 84941



Live tracking and technical data element details for IRIDIUM 41 [-] (NORAD 25040). IRIDIUM 41 [-] can be tracked NOW for your location showing map with azimuth and elevation plus other details from your city location.







IsCatalogInMostPopularTable: catalog: 25040, numindb: 546
Update: records affected: 1



GetName: 25040 IRIDIUM 41 [-]

Hit Count: updated at: Sat, 24 May 2025 15:33:14 GMT